,,Stat6,,Stat2,,Stat8,,Stat9,,Stat10,,Wind1,,Wind1,
time,status,PA1M_AVG,status,PR1M_SUM,status,RH1M_AVG,status,SR1M_AVG,status,TA1M_AVG,status,W1dAve1m,status,W1sAve1m,
2005-05-10, 00:00:00,VALID,919.813,VALID,0,VALID,100,VALID,-0.0339617,VALID,18.9742,VALID,360,VALID,0.656622,
2005-05-10, 00:01:00,VALID,919.795,VALID,0,VALID,100,VALID,-0.0509425,VALID,18.9548,VALID,321,VALID,1.01344,
2005-05-10, 00:02:00,VALID,919.799,VALID,0,VALID,100,VALID,-0.0339617,VALID,18.968,VALID,5,VALID,1.05432,
2005-05-10, 00:03:00,VALID,919.791,VALID,0,VALID,100,VALID,0,VALID,18.961,VALID,349,VALID,0.767912,
2005-05-10, 00:04:00,VALID,919.789,VALID,0,VALID,100,VALID,-0.0339617,VALID,18.968,VALID,28,VALID,0.50918,
2005-05-10, 00:05:00,VALID,919.785,VALID,0,VALID,100,VALID,0,VALID,18.9871,VALID,14,VALID,0.857031,
2005-05-10, 00:06:00,VALID,919.809,VALID,0,VALID,100,VALID,-0.0169808,VALID,18.9769,VALID,6,VALID,0.353087,
2005-05-10, 00:07:00,VALID,919.776,VALID,0,VALID,100,VALID,-0.0509425,VALID,19.0067,VALID,13,VALID,0.290698,
2005-05-10, 00:08:00,VALID,919.761,VALID,0,VALID,100,VALID,-0.0169808,VALID,19.0221,VALID,30,VALID,0.780895,
2005-05-10, 00:09:00,VALID,919.763,VALID,0,VALID,100,VALID,0,VALID,19.0455,VALID,347,VALID,0.820131,
2005-05-10, 00:10:00,VALID,919.777,VALID,0,VALID,100,VALID,0,VALID,19.0323,VALID,335,VALID,0.56064,
2005-05-10, 00:11:00,VALID,919.766,VALID,0,VALID,100,VALID,-0.0169808,VALID,19.0514,VALID,353,VALID,0.65532,
2005-05-10, 00:12:00,VALID,919.783,VALID,0,VALID,100,VALID,-0.0339617,VALID,19.0773,VALID,24,VALID,0.921317,
2005-05-10, 00:13:00,VALID,919.782,VALID,0,VALID,100,VALID,-0.0169808,VALID,19.1066,VALID,29,VALID,0.243902,
2005-05-10, 00:14:00,VALID,919.797,VALID,0,VALID,100,VALID,-0.0339617,VALID,19.1192,VALID,29,VALID,0.0298611,
2005-05-10, 00:15:00,VALID,919.794,VALID,0,VALID,100,VALID,0,VALID,19.1322,VALID,29,VALID,0.142228,
2005-05-10, 00:16:00,VALID,919.773,VALID,0,VALID,100,VALID,-0.0339617,VALID,19.155,VALID,29,VALID,0.132631,
2005-05-10, 00:17:00,VALID,919.782,VALID,0,VALID,100,VALID,-0.0339617,VALID,19.1875,VALID,24,VALID,0.494186,
2005-05-10, 00:18:00,VALID,919.802,VALID,0,VALID,100,VALID,0,VALID,19.2166,VALID,11,VALID,0.647711,
2005-05-10, 00:19:00,VALID,919.805,VALID,0,VALID,100,VALID,-0.0169808,VALID,19.2392,VALID,13,VALID,0.315874,
2005-05-10, 00:20:00,VALID,919.81,VALID,0,VALID,100,VALID,-0.0169808,VALID,19.2228,VALID,107,VALID,0.797656,
2005-05-10, 00:21:00,VALID,919.813,VALID,0,VALID,100,VALID,0,VALID,19.2131,VALID,160,VALID,0.46131,
2005-05-10, 00:22:00,VALID,919.809,VALID,0,VALID,100,VALID,-0.0339617,VALID,19.2131,VALID,143,VALID,0.29633,
2005-05-10, 00:23:00,VALID,919.846,VALID,0,VALID,100,VALID,-0.0169808,VALID,19.2198,VALID,141,VALID,0.407986,
2005-05-10, 00:24:00,VALID,919.88,VALID,0,VALID,100,VALID,-0.0339617,VALID,19.239,VALID,83,VALID,0.384718,
2005-05-10, 00:25:00,VALID,919.87,VALID,0,VALID,100,VALID,-0.0169808,VALID,19.2486,VALID,96,VALID,0.852471,
2005-05-10, 00:26:00,VALID,919.885,VALID,0.2,VALID,100,VALID,-0.0339617,VALID,19.226,VALID,159,VALID,0.338246,
2005-05-10, 00:27:00,VALID,919.899,VALID,0,VALID,100,VALID,-0.0339617,VALID,19.2129,VALID,43,VALID,0.488009,
2005-05-10, 00:28:00,VALID,919.844,VALID,0,VALID,100,VALID,-0.0339617,VALID,19.2101,VALID,29,VALID,1.63616,
2005-05-10, 00:29:00,VALID,919.854,VALID,0,VALID,100,VALID,-0.0169808,VALID,19.2228,VALID,14,VALID,1.20821,
2005-05-10, 00:30:00,VALID,919.849,VALID,0,VALID,100,VALID,-0.0509425,VALID,19.1843,VALID,360,VALID,2.07431,
2005-05-10, 00:31:00,VALID,919.816,VALID,0,VALID,100,VALID,-0.0169808,VALID,19.155,VALID,13,VALID,1.81001,
2005-05-10, 00:32:00,VALID,919.8,VALID,0,VALID,100,VALID,-0.0339617,VALID,19.1647,VALID,5,VALID,2.01206,
2005-05-10, 00:33:00,VALID,919.844,VALID,0,VALID,100,VALID,0,VALID,19.1513,VALID,118,VALID,1.22414,
2005-05-10, 00:34:00,VALID,919.819,VALID,0,VALID,100,VALID,0,VALID,19.1617,VALID,14,VALID,1.83464,
2005-05-10, 00:35:00,VALID,919.845,VALID,0,VALID,100,VALID,0,VALID,19.155,VALID,4,VALID,0.967035,
2005-05-10, 00:36:00,VALID,919.837,VALID,0,VALID,100,VALID,0.0169808,VALID,19.1632,VALID,3,VALID,1.31678,
2005-05-10, 00:37:00,VALID,919.818,VALID,0,VALID,100,VALID,0.0169808,VALID,19.16,VALID,5,VALID,1.49867,
2005-05-10, 00:38:00,VALID,919.838,VALID,0,VALID,100,VALID,0.0169808,VALID,19.1478,VALID,6,VALID,2.30851,
2005-05-10, 00:39:00,VALID,919.832,VALID,0,VALID,100,VALID,0.0339617,VALID,19.1247,VALID,5,VALID,1.36192,
2005-05-10, 00:40:00,VALID,919.862,VALID,0,VALID,100,VALID,0,VALID,19.125,VALID,42,VALID,1.30103,
2005-05-10, 00:41:00,VALID,919.827,VALID,0,VALID,100,VALID,0.0169808,VALID,19.1307,VALID,316,VALID,1.49059,
2005-05-10, 00:42:00,VALID,919.818,VALID,0,VALID,100,VALID,0.0339617,VALID,19.1471,VALID,325,VALID,0.977471,
2005-05-10, 00:43:00,VALID,919.789,VALID,0,VALID,100,VALID,0,VALID,19.1503,VALID,25,VALID,1.25495,
2005-05-10, 00:44:00,VALID,919.768,VALID,0,VALID,100,VALID,0.0169808,VALID,19.1374,VALID,334,VALID,0.466319,
2005-05-10, 00:45:00,VALID,919.737,VALID,0,VALID,100,VALID,0.0169808,VALID,19.1183,VALID,15,VALID,1.15483,
2005-05-10, 00:46:00,VALID,919.719,VALID,0,VALID,100,VALID,0.0509425,VALID,19.0147,VALID,351,VALID,2.3663,
2005-05-10, 00:47:00,VALID,919.712,VALID,0,VALID,100,VALID,0,VALID,18.9246,VALID,5,VALID,2.00073,
2005-05-10, 00:48:00,VALID,919.674,VALID,0,VALID,100,VALID,0.0169808,VALID,18.9504,VALID,11,VALID,2.24148,
2005-05-10, 00:49:00,VALID,919.666,VALID,0,VALID,100,VALID,0.0169808,VALID,18.9246,VALID,20,VALID,2.27809,
2005-05-10, 00:50:00,VALID,919.649,VALID,0,VALID,100,VALID,0.0169808,VALID,18.9569,VALID,13,VALID,1.44948,
2005-05-10, 00:51:00,VALID,919.66,VALID,0,VALID,100,VALID,-0.0849042,VALID,18.9814,VALID,18,VALID,1.37786,
2005-05-10, 00:52:00,VALID,919.636,VALID,0,VALID,100,VALID,-0.0679233,VALID,18.9553,VALID,32,VALID,1.75781,
2005-05-10, 00:53:00,VALID,919.61,VALID,0,VALID,100,VALID,-0.0849042,VALID,18.8743,VALID,5,VALID,2.16853,
2005-05-10, 00:54:00,VALID,919.582,VALID,0,VALID,100,VALID,-0.0509425,VALID,18.7961,VALID,18,VALID,2.64653,
2005-05-10, 00:55:00,VALID,919.586,VALID,0,VALID,100,VALID,-0.0679233,VALID,18.7676,VALID,12,VALID,2.46413,
2005-05-10, 00:56:00,VALID,919.595,VALID,0,VALID,100,VALID,-0.0679233,VALID,18.7487,VALID,19,VALID,2.17797,
2005-05-10, 00:57:00,VALID,919.59,VALID,0,VALID,100,VALID,-0.0849042,VALID,18.7489,VALID,8,VALID,1.7459,
2005-05-10, 00:58:00,VALID,919.572,VALID,0,VALID,100,VALID,-0.0849042,VALID,18.733,VALID,2,VALID,2.21366,
2005-05-10, 00:59:00,VALID,919.552,VALID,0,VALID,100,VALID,-0.101885,VALID,18.7429,VALID,348,VALID,1.63377,
2005-05-10, 01:00:00,VALID,919.576,VALID,0,VALID,100,VALID,-0.0849042,VALID,18.7228,VALID,339,VALID,1.69141,
2005-05-10, 01:01:00,VALID,919.565,VALID,0,VALID,100,VALID,-0.101885,VALID,18.7231,VALID,355,VALID,1.95255,
2005-05-10, 01:02:00,VALID,919.566,VALID,0,VALID,100,VALID,-0.0849042,VALID,18.739,VALID,359,VALID,1.06374,
2005-05-10, 01:03:00,VALID,919.578,VALID,0.2,VALID,100,VALID,-0.101885,VALID,18.7482,VALID,344,VALID,0.782315,
2005-05-10, 01:04:00,VALID,919.534,VALID,0,VALID,100,VALID,-0.0679233,VALID,18.7194,VALID,9,VALID,1.51469,
2005-05-10, 01:05:00,VALID,919.557,VALID,0,VALID,100,VALID,-0.0679233,VALID,18.7457,VALID,12,VALID,1.02118,
2005-05-10, 01:06:00,VALID,919.546,VALID,0,VALID,100,VALID,-0.0169808,VALID,18.7251,VALID,4,VALID,0.4625,
2005-05-10, 01:07:00,VALID,919.526,VALID,0,VALID,100,VALID,0.0169808,VALID,18.7085,VALID,360,VALID,0.790305,
2005-05-10, 01:08:00,VALID,919.49,VALID,0,VALID,100,VALID,0.0339617,VALID,18.702,VALID,347,VALID,0.632241,
2005-05-10, 01:09:00,VALID,919.481,VALID,0,VALID,100,VALID,0.0509425,VALID,18.7152,VALID,358,VALID,1.4894,
2005-05-10, 01:10:00,VALID,919.445,VALID,0,VALID,100,VALID,0.0339617,VALID,18.6983,VALID,339,VALID,0.521723,
2005-05-10, 01:11:00,VALID,919.412,VALID,0,VALID,100,VALID,0,VALID,18.7313,VALID,7,VALID,0.670573,
2005-05-10, 01:12:00,VALID,919.359,VALID,0,VALID,100,VALID,0.0169808,VALID,18.7346,VALID,352,VALID,0.970424,
2005-05-10, 01:13:00,VALID,919.302,VALID,0,VALID,100,VALID,0.0169808,VALID,18.699,VALID,345,VALID,1.32012,
2005-05-10, 01:14:00,VALID,919.254,VALID,0,VALID,100,VALID,0.0339617,VALID,18.6928,VALID,352,VALID,1.72396,
2005-05-10, 01:15:00,VALID,919.205,VALID,0,VALID,100,VALID,0,VALID,18.6836,VALID,6,VALID,1.98746,
2005-05-10, 01:16:00,VALID,919.174,VALID,0,VALID,100,VALID,0,VALID,18.6702,VALID,6,VALID,1.41295,
2005-05-10, 01:17:00,VALID,919.132,VALID,0,VALID,100,VALID,0,VALID,18.6702,VALID,341,VALID,1.60196,
2005-05-10, 01:18:00,VALID,919.109,VALID,0,VALID,100,VALID,0.0169808,VALID,18.6409,VALID,10,VALID,1.2173,
2005-05-10, 01:19:00,VALID,919.106,VALID,0,VALID,100,VALID,0.0169808,VALID,18.6246,VALID,342,VALID,1.38077,
2005-05-10, 01:20:00,VALID,919.114,VALID,0,VALID,100,VALID,0.0169808,VALID,18.6183,VALID,320,VALID,1.17085,
2005-05-10, 01:21:00,VALID,919.084,VALID,0,VALID,100,VALID,-0.0679233,VALID,18.6294,VALID,358,VALID,0.954013,
2005-05-10, 01:22:00,VALID,919.044,VALID,0,VALID,100,VALID,-0.101885,VALID,18.6423,VALID,20,VALID,1.48837,
2005-05-10, 01:23:00,VALID,919.039,VALID,0,VALID,100,VALID,-0.101885,VALID,18.623,VALID,351,VALID,1.72983,
2005-05-10, 01:24:00,VALID,919.058,VALID,0,VALID,100,VALID,-0.0679233,VALID,18.5907,VALID,318,VALID,1.22754,
2005-05-10, 01:25:00,VALID,919.031,VALID,0,VALID,100,VALID,-0.101885,VALID,18.5815,VALID,303,VALID,1.70215,
2005-05-10, 01:26:00,VALID,919.034,VALID,0,VALID,100,VALID,-0.0849042,VALID,18.5815,VALID,350,VALID,1.02965,
2005-05-10, 01:27:00,VALID,919.012,VALID,0,VALID,100,VALID,-0.101885,VALID,18.5944,VALID,3,VALID,0.0588796,
2005-05-10, 01:28:00,VALID,919.012,VALID,0,VALID,100,VALID,-0.101885,VALID,18.6038,VALID,14,VALID,1.00934,
2005-05-10, 01:29:00,VALID,919.01,VALID,0,VALID,100,VALID,-0.118866,VALID,18.6269,VALID,354,VALID,0.980097,
2005-05-10, 01:30:00,VALID,918.966,VALID,0,VALID,100,VALID,-0.101885,VALID,18.6103,VALID,349,VALID,1.00266,
2005-05-10, 01:31:00,VALID,918.953,VALID,0,VALID,100,VALID,-0.101885,VALID,18.5939,VALID,8,VALID,0.489397,
2005-05-10, 01:32:00,VALID,918.941,VALID,0,VALID,100,VALID,-0.101885,VALID,18.6105,VALID,351,VALID,0.614702,
2005-05-10, 01:33:00,VALID,918.94,VALID,0,VALID,100,VALID,-0.101885,VALID,18.5845,VALID,351,VALID,0.276456,
2005-05-10, 01:34:00,VALID,918.884,VALID,0,VALID,100,VALID,-0.0679233,VALID,18.5879,VALID,351,VALID,0,
2005-05-10, 01:35:00,VALID,918.844,VALID,0,VALID,100,VALID,-0.0849042,VALID,18.5981,VALID,17,VALID,0.557927,
2005-05-10, 01:36:00,VALID,918.84,VALID,0,VALID,100,VALID,-0.0169808,VALID,18.584,VALID,16,VALID,0.35411,
2005-05-10, 01:37:00,VALID,918.828,VALID,0,VALID,100,VALID,-0.0169808,VALID,18.5971,VALID,10,VALID,0.463542,
2005-05-10, 01:38:00,VALID,918.786,VALID,0,VALID,100,VALID,-0.0169808,VALID,18.5743,VALID,17,VALID,1.19749,
2005-05-10, 01:39:00,VALID,918.775,VALID,0,VALID,100,VALID,-0.0169808,VALID,18.5686,VALID,15,VALID,1.07227,
2005-05-10, 01:40:00,VALID,918.75,VALID,0,VALID,100,VALID,0,VALID,18.5487,VALID,348,VALID,0.701791,
2005-05-10, 01:41:00,VALID,918.706,VALID,0,VALID,100,VALID,0.0169808,VALID,18.542,VALID,3,VALID,0.627046,
2005-05-10, 01:42:00,VALID,918.689,VALID,0,VALID,100,VALID,0,VALID,18.5227,VALID,324,VALID,0.503348,
2005-05-10, 01:43:00,VALID,918.656,VALID,0,VALID,100,VALID,0,VALID,18.5301,VALID,243,VALID,1.03525,
2005-05-10, 01:44:00,VALID,918.597,VALID,0,VALID,100,VALID,0,VALID,18.5356,VALID,220,VALID,0.610176,
2005-05-10, 01:45:00,VALID,918.542,VALID,0,VALID,100,VALID,0,VALID,18.5097,VALID,227,VALID,0.391456,
2005-05-10, 01:46:00,VALID,918.534,VALID,0,VALID,100,VALID,0,VALID,18.5065,VALID,195,VALID,0.359375,
2005-05-10, 01:47:00,VALID,918.513,VALID,0,VALID,100,VALID,0,VALID,18.4867,VALID,214,VALID,0.227493,
2005-05-10, 01:48:00,VALID,918.499,VALID,0,VALID,100,VALID,0,VALID,18.5065,VALID,214,VALID,0.00381541,
2005-05-10, 01:49:00,VALID,918.468,VALID,0,VALID,100,VALID,-0.0169808,VALID,18.5259,VALID,214,VALID,0,
2005-05-10, 01:50:00,VALID,918.454,VALID,0,VALID,100,VALID,0,VALID,18.5192,VALID,214,VALID,0,
2005-05-10, 01:51:00,VALID,918.434,VALID,0,VALID,100,VALID,0,VALID,18.5192,VALID,214,VALID,0.0128348,
2005-05-10, 01:52:00,VALID,918.414,VALID,0,VALID,100,VALID,0,VALID,18.5353,VALID,214,VALID,0.0503472,
2005-05-10, 01:53:00,VALID,918.382,VALID,0,VALID,100,VALID,-0.0169808,VALID,18.5065,VALID,214,VALID,0.291481,
2005-05-10, 01:54:00,VALID,918.355,VALID,0,VALID,100,VALID,0,VALID,18.5231,VALID,231,VALID,0.396205,
2005-05-10, 01:55:00,VALID,918.316,VALID,0,VALID,100,VALID,0,VALID,18.4936,VALID,355,VALID,0.710211,
2005-05-10, 01:56:00,VALID,918.292,VALID,0,VALID,100,VALID,0,VALID,18.4652,VALID,29,VALID,0.618304,
2005-05-10, 01:57:00,VALID,918.263,VALID,0,VALID,100,VALID,0.0169808,VALID,18.4447,VALID,29,VALID,0.309659,
2005-05-10, 01:58:00,VALID,918.229,VALID,0,VALID,100,VALID,0.0339617,VALID,18.4484,VALID,29,VALID,0.268532,
2005-05-10, 01:59:00,VALID,918.208,VALID,0,VALID,100,VALID,0,VALID,18.4544,VALID,29,VALID,0.353468,
2005-05-10, 02:00:00,VALID,918.181,VALID,0,VALID,100,VALID,-0.0169808,VALID,18.4196,VALID,29,VALID,0.494496,
2005-05-10, 02:01:00,VALID,918.134,VALID,0,VALID,100,VALID,0,VALID,18.3778,VALID,29,VALID,0.603609,
2005-05-10, 02:02:00,VALID,918.119,VALID,0,VALID,100,VALID,-0.0169808,VALID,18.3751,VALID,29,VALID,0.777876,
2005-05-10, 02:03:00,VALID,918.087,VALID,0,VALID,100,VALID,-0.0169808,VALID,18.3716,VALID,21,VALID,0.810547,
2005-05-10, 02:04:00,VALID,918.058,VALID,0,VALID,100,VALID,-0.0169808,VALID,18.3329,VALID,21,VALID,0.736421,
2005-05-10, 02:05:00,VALID,918.03,VALID,0,VALID,100,VALID,-0.0509425,VALID,18.3167,VALID,21,VALID,0.500347,
2005-05-10, 02:06:00,VALID,917.987,VALID,0,VALID,100,VALID,0.0849042,VALID,18.2992,VALID,23,VALID,0.574963,
2005-05-10, 02:07:00,VALID,917.948,VALID,0,VALID,100,VALID,0.0849042,VALID,18.2994,VALID,26,VALID,0.639881,
2005-05-10, 02:08:00,VALID,917.912,VALID,0,VALID,100,VALID,0.0509425,VALID,18.2762,VALID,26,VALID,0.796342,
2005-05-10, 02:09:00,VALID,917.862,VALID,0,VALID,100,VALID,0.0509425,VALID,18.2543,VALID,29,VALID,0.933984,
2005-05-10, 02:10:00,VALID,917.83,VALID,0,VALID,100,VALID,0.0679233,VALID,18.2213,VALID,33,VALID,1.06977,
2005-05-10, 02:11:00,VALID,917.786,VALID,0,VALID,100,VALID,0.101885,VALID,18.183,VALID,35,VALID,1.25747,
2005-05-10, 02:12:00,VALID,917.745,VALID,0,VALID,100,VALID,0.101885,VALID,18.15,VALID,41,VALID,1.61776,
2005-05-10, 02:13:00,VALID,917.727,VALID,0,VALID,100,VALID,0.101885,VALID,18.1406,VALID,37,VALID,1.51953,
2005-05-10, 02:14:00,VALID,917.694,VALID,0,VALID,100,VALID,0.0849042,VALID,18.1344,VALID,34,VALID,1.20592,
2005-05-10, 02:15:00,VALID,917.664,VALID,0,VALID,100,VALID,0.0849042,VALID,18.1219,VALID,34,VALID,1.17133,
2005-05-10, 02:16:00,VALID,917.635,VALID,0,VALID,100,VALID,0.118866,VALID,18.1122,VALID,34,VALID,1.31362,
2005-05-10, 02:17:00,VALID,917.601,VALID,0,VALID,100,VALID,0.0849042,VALID,18.1122,VALID,35,VALID,1.2689,
2005-05-10, 02:18:00,VALID,917.576,VALID,0,VALID,100,VALID,0.101885,VALID,18.0993,VALID,34,VALID,1.15861,
2005-05-10, 02:19:00,VALID,917.517,VALID,0,VALID,100,VALID,0.101885,VALID,18.1025,VALID,30,VALID,1.16566,
2005-05-10, 02:20:00,VALID,917.489,VALID,0,VALID,100,VALID,0.0849042,VALID,18.1085,VALID,27,VALID,0.558685,
2005-05-10, 02:21:00,VALID,917.456,VALID,0,VALID,100,VALID,0,VALID,18.1198,VALID,27,VALID,0.337271,
2005-05-10, 02:22:00,VALID,917.4,VALID,0,VALID,100,VALID,-0.0169808,VALID,18.1131,VALID,25,VALID,0.367733,
2005-05-10, 02:23:00,VALID,917.391,VALID,0,VALID,100,VALID,-0.0169808,VALID,18.1136,VALID,18,VALID,0.252548,
2005-05-10, 02:24:00,VALID,917.352,VALID,0,VALID,100,VALID,-0.0339617,VALID,18.1293,VALID,18,VALID,0.00111607,
2005-05-10, 02:25:00,VALID,917.317,VALID,0,VALID,100,VALID,0,VALID,18.1224,VALID,18,VALID,0.029154,
2005-05-10, 02:26:00,VALID,917.283,VALID,0,VALID,100,VALID,0,VALID,18.1067,VALID,18,VALID,0.0795455,
2005-05-10, 02:27:00,VALID,917.257,VALID,0,VALID,100,VALID,-0.0169808,VALID,18.1037,VALID,18,VALID,0.0309028,
2005-05-10, 02:28:00,VALID,917.226,VALID,0,VALID,100,VALID,0,VALID,18.1069,VALID,18,VALID,0,
2005-05-10, 02:29:00,VALID,917.191,VALID,0,VALID,100,VALID,-0.0169808,VALID,18.0903,VALID,18,VALID,0.140443,
2005-05-10, 02:30:00,VALID,917.15,VALID,0,VALID,100,VALID,0.0169808,VALID,18.1069,VALID,18,VALID,0.287109,
2005-05-10, 02:31:00,VALID,917.123,VALID,0,VALID,100,VALID,-0.0339617,VALID,18.1071,VALID,18,VALID,0.454901,
2005-05-10, 02:32:00,VALID,917.102,VALID,0,VALID,100,VALID,0,VALID,18.1069,VALID,19,VALID,0.506641,
2005-05-10, 02:33:00,VALID,917.077,VALID,0,VALID,100,VALID,-0.0339617,VALID,18.0419,VALID,20,VALID,0.470313,
2005-05-10, 02:34:00,VALID,917.05,VALID,0,VALID,100,VALID,-0.0169808,VALID,17.9909,VALID,22,VALID,0.564546,
2005-05-10, 02:35:00,VALID,917.037,VALID,0,VALID,100,VALID,0,VALID,17.9552,VALID,28,VALID,0.612827,
2005-05-10, 02:36:00,VALID,917.012,VALID,0,VALID,100,VALID,0.0169808,VALID,17.9261,VALID,36,VALID,0.579427,
2005-05-10, 02:37:00,VALID,916.986,VALID,0,VALID,100,VALID,-0.0339617,VALID,17.9395,VALID,42,VALID,0.63316,
2005-05-10, 02:38:00,VALID,916.979,VALID,0,VALID,100,VALID,-0.0169808,VALID,17.9229,VALID,56,VALID,0.698289,
2005-05-10, 02:39:00,VALID,916.948,VALID,0,VALID,100,VALID,0,VALID,17.9487,VALID,61,VALID,0.658507,
2005-05-10, 02:40:00,VALID,916.932,VALID,0,VALID,100,VALID,-0.0169808,VALID,17.9423,VALID,61,VALID,0.348656,
2005-05-10, 02:41:00,VALID,916.913,VALID,0,VALID,100,VALID,-0.0169808,VALID,17.9393,VALID,61,VALID,0.445871,
2005-05-10, 02:42:00,VALID,916.898,VALID,0,VALID,100,VALID,-0.0169808,VALID,17.9326,VALID,61,VALID,0.339753,
2005-05-10, 02:43:00,VALID,916.875,VALID,0,VALID,100,VALID,0,VALID,17.946,VALID,61,VALID,0.11101,
2005-05-10, 02:44:00,VALID,916.873,VALID,0,VALID,100,VALID,0,VALID,17.9391,VALID,61,VALID,0.203125,
2005-05-10, 02:45:00,VALID,916.878,VALID,0,VALID,100,VALID,-0.0169808,VALID,17.9395,VALID,61,VALID,0.368278,
2005-05-10, 02:46:00,VALID,916.868,VALID,0,VALID,100,VALID,-0.0339617,VALID,17.9554,VALID,61,VALID,0.227471,
2005-05-10, 02:47:00,VALID,916.872,VALID,0,VALID,100,VALID,-0.0169808,VALID,17.9782,VALID,61,VALID,0.242001,
2005-05-10, 02:48:00,VALID,916.87,VALID,0,VALID,100,VALID,0,VALID,17.9847,VALID,61,VALID,0.280506,
2005-05-10, 02:49:00,VALID,916.85,VALID,0,VALID,100,VALID,-0.0169808,VALID,17.9815,VALID,61,VALID,0.329368,
2005-05-10, 02:50:00,VALID,916.837,VALID,0,VALID,100,VALID,-0.0169808,VALID,17.9847,VALID,61,VALID,0.253162,
2005-05-10, 02:51:00,VALID,916.821,VALID,0,VALID,100,VALID,-0.0339617,VALID,17.9937,VALID,61,VALID,0.0179687,
2005-05-10, 02:52:00,VALID,916.797,VALID,0,VALID,100,VALID,0.0169808,VALID,18.0071,VALID,61,VALID,0.00142045,
2005-05-10, 02:53:00,VALID,916.792,VALID,0,VALID,100,VALID,0,VALID,17.9972,VALID,61,VALID,0,
2005-05-10, 02:54:00,VALID,916.793,VALID,0,VALID,100,VALID,-0.0169808,VALID,17.9972,VALID,61,VALID,0.143532,
2005-05-10, 02:55:00,VALID,916.785,VALID,0,VALID,100,VALID,0,VALID,17.9944,VALID,61,VALID,0.0495427,
2005-05-10, 02:56:00,VALID,916.786,VALID,0,VALID,100,VALID,0.0169808,VALID,17.9718,VALID,61,VALID,0,
2005-05-10, 02:57:00,VALID,916.773,VALID,0,VALID,100,VALID,0,VALID,17.9423,VALID,61,VALID,0.0012429,
2005-05-10, 02:58:00,VALID,916.773,VALID,0,VALID,100,VALID,0,VALID,17.8842,VALID,61,VALID,0.168555,
2005-05-10, 02:59:00,VALID,916.78,VALID,0,VALID,100,VALID,0,VALID,17.8752,VALID,61,VALID,0.326853,
2005-05-10, 03:00:00,VALID,916.785,VALID,0,VALID,100,VALID,-0.0169808,VALID,17.8687,VALID,61,VALID,0.470274,
2005-05-10, 03:01:00,VALID,916.792,VALID,0,VALID,100,VALID,-0.0339617,VALID,17.868,VALID,61,VALID,0.487909,
2005-05-10, 03:02:00,VALID,916.762,VALID,0,VALID,100,VALID,0,VALID,17.8782,VALID,61,VALID,0.499826,
2005-05-10, 03:03:00,VALID,916.751,VALID,0,VALID,100,VALID,0,VALID,17.8879,VALID,61,VALID,0.18608,
2005-05-10, 03:04:00,VALID,916.719,VALID,0,VALID,100,VALID,-0.0169808,VALID,17.8521,VALID,61,VALID,0.0446429,
2005-05-10, 03:05:00,VALID,916.707,VALID,0,VALID,100,VALID,0,VALID,17.7587,VALID,61,VALID,0.240371,
2005-05-10, 03:06:00,VALID,916.686,VALID,0,VALID,100,VALID,0,VALID,17.6845,VALID,61,VALID,0.45827,
2005-05-10, 03:07:00,VALID,916.653,VALID,0,VALID,100,VALID,-0.0339617,VALID,17.6137,VALID,61,VALID,0.499809,
2005-05-10, 03:08:00,VALID,916.657,VALID,0,VALID,100,VALID,-0.0169808,VALID,17.6169,VALID,61,VALID,0.663681,
2005-05-10, 03:09:00,VALID,916.628,VALID,0,VALID,100,VALID,0,VALID,17.6555,VALID,61,VALID,0.774368,
2005-05-10, 03:10:00,VALID,916.612,VALID,0,VALID,100,VALID,-0.0169808,VALID,17.6589,VALID,61,VALID,0.761328,
2005-05-10, 03:11:00,VALID,916.599,VALID,0,VALID,100,VALID,-0.0509425,VALID,17.6266,VALID,61,VALID,0.857244,
2005-05-10, 03:12:00,VALID,916.595,VALID,0,VALID,100,VALID,-0.0169808,VALID,17.5974,VALID,61,VALID,0.756925,
2005-05-10, 03:13:00,VALID,916.58,VALID,0,VALID,100,VALID,0,VALID,17.5943,VALID,61,VALID,0.826853,
2005-05-10, 03:14:00,VALID,916.571,VALID,0,VALID,100,VALID,-0.0509425,VALID,17.6169,VALID,61,VALID,0.813227,
2005-05-10, 03:15:00,VALID,916.574,VALID,0,VALID,100,VALID,-0.0339617,VALID,17.688,VALID,69,VALID,0.959339,
2005-05-10, 03:16:00,VALID,916.552,VALID,0,VALID,100,VALID,-0.0169808,VALID,17.7659,VALID,94,VALID,0.990734,
2005-05-10, 03:17:00,VALID,916.542,VALID,0,VALID,100,VALID,0,VALID,17.7781,VALID,103,VALID,1.00816,
2005-05-10, 03:18:00,VALID,916.526,VALID,0,VALID,100,VALID,-0.0339617,VALID,17.7682,VALID,103,VALID,1.10036,
2005-05-10, 03:19:00,VALID,916.515,VALID,0,VALID,100,VALID,-0.0339617,VALID,17.7816,VALID,103,VALID,1.16069,
2005-05-10, 03:20:00,VALID,916.492,VALID,0,VALID,100,VALID,0,VALID,17.791,VALID,104,VALID,1.28292,
2005-05-10, 03:21:00,VALID,916.458,VALID,0,VALID,100,VALID,0.0169808,VALID,17.8104,VALID,102,VALID,1.244,
2005-05-10, 03:22:00,VALID,916.442,VALID,0,VALID,100,VALID,0,VALID,17.8042,VALID,109,VALID,1.20658,
2005-05-10, 03:23:00,VALID,916.415,VALID,0,VALID,100,VALID,0,VALID,17.8207,VALID,114,VALID,1.47319,
2005-05-10, 03:24:00,VALID,916.405,VALID,0,VALID,100,VALID,0,VALID,17.8362,VALID,111,VALID,1.10417,
2005-05-10, 03:25:00,VALID,916.378,VALID,0,VALID,100,VALID,0,VALID,17.8466,VALID,105,VALID,0.831076,
2005-05-10, 03:26:00,VALID,916.35,VALID,0,VALID,100,VALID,0,VALID,17.8401,VALID,107,VALID,0.698038,
2005-05-10, 03:27:00,VALID,916.334,VALID,0,VALID,100,VALID,0,VALID,17.8203,VALID,107,VALID,0.801525,
2005-05-10, 03:28:00,VALID,916.31,VALID,0,VALID,100,VALID,-0.0169808,VALID,17.8072,VALID,116,VALID,0.977307,
2005-05-10, 03:29:00,VALID,916.28,VALID,0,VALID,100,VALID,0,VALID,17.8104,VALID,126,VALID,1.1399,
2005-05-10, 03:30:00,VALID,916.271,VALID,0,VALID,100,VALID,0,VALID,17.8397,VALID,133,VALID,1.23438,
2005-05-10, 03:31:00,VALID,916.25,VALID,0,VALID,100,VALID,-0.0169808,VALID,17.8431,VALID,131,VALID,1.21895,
2005-05-10, 03:32:00,VALID,916.245,VALID,0,VALID,100,VALID,0,VALID,17.8265,VALID,127,VALID,0.831445,
2005-05-10, 03:33:00,VALID,916.243,VALID,0,VALID,100,VALID,0,VALID,17.8334,VALID,134,VALID,0.929688,
2005-05-10, 03:34:00,VALID,916.23,VALID,0,VALID,100,VALID,0,VALID,17.853,VALID,148,VALID,1.23746,
2005-05-10, 03:35:00,VALID,916.226,VALID,0,VALID,100,VALID,-0.0169808,VALID,17.8623,VALID,137,VALID,0.710565,
2005-05-10, 03:36:00,VALID,916.207,VALID,0,VALID,100,VALID,0.0849042,VALID,17.8745,VALID,121,VALID,1.09358,
2005-05-10, 03:37:00,VALID,916.194,VALID,0,VALID,100,VALID,0.118866,VALID,17.8902,VALID,123,VALID,1.38281,
2005-05-10, 03:38:00,VALID,916.194,VALID,0,VALID,100,VALID,0.101885,VALID,17.9188,VALID,135,VALID,1.38356,
2005-05-10, 03:39:00,VALID,916.177,VALID,0,VALID,100,VALID,0.101885,VALID,17.9418,VALID,129,VALID,1.11643,
2005-05-10, 03:40:00,VALID,916.16,VALID,0,VALID,100,VALID,0.101885,VALID,17.9319,VALID,127,VALID,1.20908,
2005-05-10, 03:41:00,VALID,916.142,VALID,0,VALID,100,VALID,0.0849042,VALID,17.9577,VALID,118,VALID,1.12936,
2005-05-10, 03:42:00,VALID,916.119,VALID,0,VALID,100,VALID,0.0849042,VALID,17.9541,VALID,112,VALID,0.809261,